Location: Peyton Hall Observatory
(40.3466°N, 74.6516°W)
Time: 06:59:54
(UTC-04:00)

ISS - All Passes

Search period start: 26 May 2017 00:00
Search period end: 05 June 2017 00:00
Orbit: 402 x 408 km, 51.6° (Epoch: 26 May)

Date Brightness Start Highest point End Pass type
(mag) Time Alt. Az. Time Alt. Az. Time Alt. Az.
26 May - 00:27:59 10° NNW 00:29:15 12° N 00:30:31 10° NNE visible
26 May - 02:04:22 10° NNW 02:06:45 18° NNE 02:09:09 10° ENE visible
26 May - 03:40:20 10° NW 03:43:38 90° NE 03:46:54 10° SE visible
26 May - 20:20:01 10° SSW 20:23:02 35° SE 20:26:04 10° ENE daylight
26 May - 21:56:36 10° W 21:59:33 29° NNW 22:02:30 10° NE visible
26 May - 23:35:20 10° NW 23:36:51 12° N 23:38:22 10° NNE visible
27 May - 01:12:30 10° NNW 01:14:26 14° NNE 01:16:21 10° NE visible
27 May - 02:48:21 10° NW 02:51:33 48° NNE 02:54:44 10° ESE visible
27 May - 04:25:28 10° W 04:27:48 18° SW 04:30:06 10° S visible
27 May - 19:28:47 10° S 19:31:08 18° SE 19:33:29 10° E daylight
27 May - 21:04:10 10° WSW 21:07:22 48° NNW 21:10:36 10° NE visible
27 May - 22:42:32 10° NW 22:44:29 15° NNW 22:46:25 10° NNE visible
28 May - 00:20:33 10° NNW 00:22:04 12° N 00:23:34 10° NE visible
28 May - 01:56:26 10° NW 01:59:23 29° NNE 02:02:19 10° E visible
28 May - 03:32:52 10° WNW 03:35:53 34° SW 03:38:53 10° SSE night (unlit)
28 May - 20:11:58 10° SW 20:15:16 90° NNW 20:18:34 10° NE daylight
28 May - 21:49:44 10° WNW 21:52:08 18° NNW 21:54:33 10° NNE visible
28 May - 23:28:22 10° NNW 23:29:39 12° N 23:30:55 10° NNE visible
29 May - 01:04:33 10° NNW 01:07:07 20° NNE 01:09:41 10° ENE visible
29 May - 02:40:37 10° WNW 02:43:54 70° SW 02:47:08 10° SE visible
29 May - 19:20:04 10° SSW 19:23:14 45° SE 19:26:24 10° ENE daylight
29 May - 20:57:01 10° W 20:59:51 25° NNW 21:02:40 10° NE visible
29 May - 22:35:50 10° NNW 22:37:13 12° N 22:38:37 10° NNE visible
30 May - 00:12:40 10° NNW 00:14:47 16° NNE 00:16:53 10° NE visible
30 May - 01:48:32 10° NW 01:51:48 60° NE 01:55:02 10° ESE visible
30 May - 03:26:06 10° W 03:27:56 14° SW 03:29:46 10° SSW night (unlit)
30 May - 18:28:35 10° S 18:31:16 23° SE 18:33:57 10° ENE daylight
30 May - 20:04:29 10° WSW 20:07:36 39° NNW 20:10:45 10° NE daylight
30 May - 21:43:01 10° NW 21:44:47 14° N 21:46:34 10° NNE visible
30 May - 23:20:44 10° NNW 23:22:23 13° N 23:24:02 10° NE visible
31 May - 00:56:34 10° NW 00:59:37 35° NNE 01:02:40 10° E visible
31 May - 02:33:12 10° WNW 02:36:02 27° SW 02:38:50 10° SSE night (unlit)
31 May - 17:37:58 10° SSE 17:39:21 12° SE 17:40:46 10° ESE daylight
31 May - 19:12:09 10° WSW 19:15:26 71° NW 19:18:43 10° NE daylight
31 May - 20:50:09 10° WNW 20:52:23 17° NNW 20:54:38 10° NNE visible
31 May - 22:28:36 10° NNW 22:29:56 12° N 22:31:16 10° NNE visible
01 Jun - 00:04:38 10° NNW 00:07:21 23° NNE 00:10:03 10° E visible
01 Jun - 01:40:48 10° WNW 01:44:02 53° SW 01:47:13 10° SE visible
01 Jun - 18:20:05 10° SW 18:23:20 59° SE 18:26:35 10° ENE daylight
01 Jun - 19:57:22 10° WNW 20:00:03 22° NNW 20:02:43 10° NNE daylight
01 Jun - 21:36:10 10° NNW 21:37:28 12° N 21:38:47 10° NNE visible
01 Jun - 23:12:43 10° NNW 23:14:59 17° NNE 23:17:17 10° ENE visible
02 Jun - 00:48:38 10° NW 00:51:56 77° NE 00:55:12 10° ESE visible
02 Jun - 02:26:58 10° WSW 02:27:58 11° SW 02:28:58 10° SSW night (unlit)
02 Jun - 17:28:23 10° SSW 17:31:17 29° SE 17:34:13 10° ENE daylight
02 Jun - 19:04:42 10° W 19:07:43 33° NNW 19:10:47 10° NE daylight
02 Jun - 20:43:23 10° NW 20:45:00 13° N 20:46:37 10° NNE daylight
02 Jun - 22:20:45 10° NNW 22:22:35 14° NNE 22:24:24 10° NE visible
02 Jun - 23:56:35 10° NW 23:59:44 42° NNE 00:02:53 10° ESE visible
03 Jun - 01:33:29 10° W 01:36:03 21° SW 01:38:36 10° S night (unlit)
03 Jun - 16:37:17 10° S 16:39:20 16° SE 16:41:22 10° E daylight
03 Jun - 18:12:15 10° WSW 18:15:30 56° NNW 18:18:45 10° NE daylight
03 Jun - 19:50:29 10° NW 19:52:32 15° NNW 19:54:37 10° NNE daylight
03 Jun - 21:28:41 10° NNW 21:30:06 12° N 21:31:32 10° NNE visible
03 Jun - 23:04:35 10° NW 23:07:28 26° NNE 23:10:18 10° E visible
04 Jun - 00:40:55 10° WNW 00:44:03 41° SW 00:47:09 10° SSE visible
04 Jun - 17:20:02 10° SW 17:23:19 76° SE 17:26:38 10° NE daylight
04 Jun - 18:57:36 10° WNW 19:00:07 20° NNW 19:02:39 10° NNE daylight
04 Jun - 20:36:19 10° NNW 20:37:36 12° N 20:38:52 10° NNE daylight
04 Jun - 22:12:38 10° NNW 22:15:06 19° NNE 22:17:33 10° ENE visible
04 Jun - 23:48:38 10° NW 23:51:56 84° SW 23:55:12 10° SE visible
